Tracking 19149 objects as of 22-Apr-2018
HD Live streaming from Space Station
objects crossing your sky now

FENGYUN 1C DEB

Track FENGYUN 1C DEB now!
10-day predictions


NORAD ID: 30572
Int'l Code: 1999-025ALN
Perigee: 858.9 km
Apogee: 895.4 km
Inclination: 99.1 °
Period: 102.4 minutes
Semi major axis: 7248 km
RCS: 0.0635 m2 (small)
Launch date: May 10, 1999
Source: People's Republic of China (PRC)
Launch site: Taiyaun Space Center, China (TSC)

Note: This is SATELLITE DEBRIS
aabbcc
Your satellite tracking list
Your tracking list is empty




NASA's NSSDC Master Catalog

Two Line Element Set (TLE):
1 30572U 99025ALN 18111.61399251 -.00000087 +00000-0 -25083-4 0  9999
2 30572 099.0870 134.4402 0025159 191.3328 281.1561 14.06898508574840
Source of the keplerian elements: AFSPC